WXM80 ListenWXM80 Stop

You find our weather info also at:

UK Metoffice

WeatherCloud

Weather Underground

Northeastern Weather Network

AWEKAS

Citizen Weather Observer Program (CWOP)

HAMweather, WeatherForYou, PWS Weather


Weather Underground History page Text

Daily Summary for August 27, 2017 Units:  English    Metric   Both
« Previous Day
Next Day »
Daily Weekly Monthly Yearly Custom
  High: Low: Average:
Temperature: 79.0 °F 57.5 °F 67.3 °F
Dew Point: 63.9 °F 52.8 °F 57 °F
Humidity: 91 % 42 % 71 %
Wind Speed: 5.1 mph 0.0 mph 1 mph
Wind Gust: 9.2 mph - -
Wind:- - East
Pressure: 30.24 in 30.16 in -
Precipitation: 0.00 in    
Historical Graphs
 
 
Tabular Data for August 27, 2017
Time Temperature Dew Point Pressure Wind Wind Speed Wind Gust Humidity Rainfall Rate (Hourly)
00:00 59.5 °F 55.0 °F 30.21 in Calm     85 % 0.00 in
00:05 59.4 °F 54.9 °F 30.21 in Calm     85 % 0.00 in
00:10 59.3 °F 54.8 °F 30.21 in West 0.1 mph 1.2 mph 85 % 0.00 in
00:15 59.3 °F 55.1 °F 30.21 in Calm     86 % 0.00 in
00:20 59.2 °F 55.0 °F 30.21 in Calm     86 % 0.00 in
00:25 59.2 °F 55.0 °F 30.21 in West 0.7 mph 1.2 mph 86 % 0.00 in
00:30 59.1 °F 55.2 °F 30.21 in Calm   1.2 mph 87 % 0.00 in
00:35 59.1 °F 55.2 °F 30.21 in Calm     87 % 0.00 in
00:40 59.1 °F 55.2 °F 30.21 in Calm     87 % 0.00 in
00:45 59.1 °F 55.5 °F 30.21 in West 0.3 mph 1.2 mph 88 % 0.00 in
00:50 59.1 °F 55.5 °F 30.21 in Calm     88 % 0.00 in
00:52 59.1 °F 55.5 °F 30.21 in Calm     88 % 0.00 in
00:57 59.1 °F 55.5 °F 30.21 in Calm     88 % 0.00 in
01:02 59.1 °F 55.5 °F 30.21 in Calm     88 % 0.00 in
01:07 59.2 °F 55.6 °F 30.21 in Calm     88 % 0.00 in
01:12 59.2 °F 55.6 °F 30.21 in Calm     88 % 0.00 in
01:17 59.2 °F 56.0 °F 30.21 in Calm     89 % 0.00 in
01:22 59.2 °F 56.0 °F 30.20 in Calm   1.2 mph 89 % 0.00 in
01:27 59.2 °F 56.0 °F 30.20 in West 0.2 mph 1.0 mph 89 % 0.00 in
01:32 59.2 °F 55.6 °F 30.20 in West 0.5 mph 2.3 mph 88 % 0.00 in
01:37 59.1 °F 55.5 °F 30.20 in West 0.6 mph 1.2 mph 88 % 0.00 in
01:42 59.1 °F 55.2 °F 30.20 in West 0.6 mph 2.3 mph 87 % 0.00 in
01:47 59.1 °F 55.2 °F 30.20 in Calm     87 % 0.00 in
01:52 59.1 °F 55.2 °F 30.20 in Calm     87 % 0.00 in
01:57 59.1 °F 54.9 °F 30.20 in West 0.4 mph 1.2 mph 86 % 0.00 in
02:02 59.1 °F 54.9 °F 30.20 in West 0.6 mph 2.3 mph 86 % 0.00 in
02:07 59.1 °F 54.9 °F 30.20 in West 0.4 mph 1.2 mph 86 % 0.00 in
02:12 59.1 °F 54.9 °F 30.20 in West 0.2 mph 1.2 mph 86 % 0.00 in
02:17 59.0 °F 54.8 °F 30.20 in Calm     86 % 0.00 in
02:22 58.9 °F 54.7 °F 30.20 in West 0.1 mph 1.2 mph 86 % 0.00 in
02:27 58.8 °F 54.6 °F 30.20 in West 0.1 mph 1.2 mph 86 % 0.00 in
02:32 58.7 °F 54.5 °F 30.20 in Calm     86 % 0.00 in
02:38 58.6 °F 54.4 °F 30.20 in Calm     86 % 0.00 in
02:43 58.6 °F 54.4 °F 30.20 in West 0.1 mph 1.2 mph 86 % 0.00 in
02:48 58.4 °F 54.2 °F 30.20 in West 0.1 mph 1.2 mph 86 % 0.00 in
02:53 58.3 °F 54.1 °F 30.20 in Calm   1.2 mph 86 % 0.00 in
02:58 58.3 °F 54.4 °F 30.20 in Calm     87 % 0.00 in
03:03 58.2 °F 54.3 °F 30.20 in West 0.1 mph 1.0 mph 87 % 0.00 in
03:08 58.1 °F 54.2 °F 30.20 in West 1.4 mph 2.3 mph 87 % 0.00 in
03:13 58.0 °F 54.2 °F 30.20 in Calm   1.2 mph 87 % 0.00 in
03:18 57.9 °F 54.1 °F 30.20 in West 0.1 mph 1.0 mph 87 % 0.00 in
03:23 57.8 °F 54.3 °F 30.20 in Calm     88 % 0.00 in
03:28 57.7 °F 54.2 °F 30.20 in Calm     88 % 0.00 in
03:33 57.7 °F 54.2 °F 30.20 in Calm     88 % 0.00 in
03:38 57.6 °F 54.1 °F 30.20 in Calm     88 % 0.00 in
03:43 57.6 °F 54.1 °F 30.20 in Calm     88 % 0.00 in
03:48 57.6 °F 54.4 °F 30.21 in Calm     89 % 0.00 in
03:53 57.5 °F 54.0 °F 30.21 in Calm   1.2 mph 88 % 0.00 in
03:59 57.5 °F 54.3 °F 30.20 in West 0.1 mph   89 % 0.00 in
04:04 57.5 °F 54.3 °F 30.20 in West 0.2 mph 2.3 mph 89 % 0.00 in
04:09 57.5 °F 54.6 °F 30.20 in North 2.0 mph 3.0 mph 90 % 0.00 in
04:14 57.5 °F 54.9 °F 30.20 in Calm   2.3 mph 91 % 0.00 in
04:19 57.6 °F 55.0 °F 30.20 in Calm     91 % 0.00 in
04:20 57.6 °F 54.7 °F 30.20 in Calm     90 % 0.00 in
04:25 57.6 °F 55.0 °F 30.20 in North 0.9 mph 3.5 mph 91 % 0.00 in
04:30 57.7 °F 55.1 °F 30.20 in NNE 1.8 mph 3.5 mph 91 % 0.00 in
04:35 57.8 °F 55.2 °F 30.20 in NNE 0.7 mph 3.5 mph 91 % 0.00 in
04:40 57.9 °F 55.3 °F 30.20 in NE 1.4 mph 3.5 mph 91 % 0.00 in
04:45 58.0 °F 55.4 °F 30.20 in NNE 0.7 mph 2.3 mph 91 % 0.00 in
04:50 58.1 °F 55.2 °F 30.20 in NNE 2.3 mph 4.0 mph 90 % 0.00 in
04:55 58.3 °F 55.4 °F 30.20 in NNE 2.6 mph 5.0 mph 90 % 0.00 in
05:00 58.5 °F 55.6 °F 30.20 in North 3.6 mph 4.6 mph 90 % 0.00 in
05:05 58.6 °F 55.7 °F 30.20 in Calm   2.3 mph 90 % 0.00 in
05:10 58.8 °F 55.9 °F 30.20 in NE 1.0 mph 2.3 mph 90 % 0.00 in
05:11 58.8 °F 55.9 °F 30.20 in NE 0.4 mph 2.3 mph 90 % 0.00 in
05:16 59.0 °F 55.8 °F 30.20 in NE 1.0 mph 3.0 mph 89 % 0.00 in
05:21 59.1 °F 55.9 °F 30.21 in Calm     89 % 0.00 in
05:26 59.2 °F 55.6 °F 30.20 in Calm     88 % 0.00 in
05:31 59.3 °F 55.7 °F 30.20 in ENE 0.3 mph 1.2 mph 88 % 0.00 in
05:36 59.4 °F 55.8 °F 30.20 in ENE 0.1 mph 1.2 mph 88 % 0.00 in
05:41 59.4 °F 55.5 °F 30.20 in NE 0.8 mph 1.2 mph 87 % 0.00 in
05:46 59.4 °F 55.5 °F 30.21 in ENE 0.2 mph 3.5 mph 87 % 0.00 in
05:52 59.4 °F 55.5 °F 30.21 in Calm     87 % 0.00 in
05:57 59.4 °F 55.5 °F 30.21 in ENE 0.3 mph 2.0 mph 87 % 0.00 in
06:02 59.4 °F 55.5 °F 30.21 in Calm     87 % 0.00 in
06:07 59.4 °F 55.5 °F 30.21 in North 0.9 mph 1.2 mph 87 % 0.00 in
06:12 59.4 °F 55.5 °F 30.21 in ENE 1.1 mph 4.6 mph 87 % 0.00 in
06:17 59.4 °F 55.5 °F 30.22 in NE 0.9 mph 4.0 mph 87 % 0.00 in
06:22 59.5 °F 55.6 °F 30.21 in NE 0.4 mph 2.3 mph 87 % 0.00 in
06:27 59.5 °F 55.6 °F 30.22 in NNE 0.6 mph 3.5 mph 87 % 0.00 in
06:32 59.6 °F 55.7 °F 30.22 in NE 0.9 mph 2.3 mph 87 % 0.00 in
06:37 59.6 °F 55.7 °F 30.22 in NNE 0.6 mph 2.3 mph 87 % 0.00 in
06:42 59.8 °F 55.9 °F 30.22 in NNE 2.1 mph 3.5 mph 87 % 0.00 in
06:47 59.8 °F 55.9 °F 30.22 in NE 1.8 mph 5.8 mph 87 % 0.00 in
06:52 60.0 °F 55.8 °F 30.22 in NE 0.3 mph 3.5 mph 86 % 0.00 in
06:57 60.1 °F 55.9 °F 30.22 in NE 1.4 mph 3.5 mph 86 % 0.00 in
07:03 60.2 °F 56.0 °F 30.22 in ENE 1.0 mph 3.0 mph 86 % 0.00 in
07:08 60.4 °F 56.2 °F 30.22 in NE 2.1 mph 5.0 mph 86 % 0.00 in
07:13 60.5 °F 56.0 °F 30.22 in ENE 2.4 mph 3.5 mph 85 % 0.00 in
07:18 60.7 °F 56.2 °F 30.22 in NNE 1.6 mph 3.5 mph 85 % 0.00 in
07:23 60.9 °F 56.4 °F 30.22 in ENE 1.6 mph 4.0 mph 85 % 0.00 in
07:28 61.1 °F 56.6 °F 30.22 in ENE 1.8 mph 3.5 mph 85 % 0.00 in
07:33 61.3 °F 56.4 °F 30.22 in NE 1.3 mph 4.6 mph 84 % 0.00 in
07:38 61.5 °F 56.6 °F 30.22 in ENE 2.1 mph 3.5 mph 84 % 0.00 in
07:43 61.8 °F 56.9 °F 30.22 in NNE 1.1 mph 3.5 mph 84 % 0.00 in
07:48 62.0 °F 56.8 °F 30.22 in NE 1.7 mph 3.5 mph 83 % 0.00 in
07:53 62.2 °F 56.6 °F 30.23 in NE 1.9 mph 9.0 mph 82 % 0.00 in
07:58 62.5 °F 56.9 °F 30.22 in ENE 1.4 mph 4.0 mph 82 % 0.00 in
08:03 62.8 °F 57.2 °F 30.23 in ENE 1.7 mph 3.5 mph 82 % 0.00 in
08:08 63.0 °F 57.4 °F 30.23 in NNE 2.3 mph 6.9 mph 82 % 0.00 in
08:13 63.3 °F 57.4 °F 30.22 in NE 1.5 mph 3.5 mph 81 % 0.00 in
08:18 63.5 °F 57.2 °F 30.23 in ENE 2.9 mph 5.8 mph 80 % 0.00 in
08:23 63.6 °F 57.3 °F 30.23 in NE 2.6 mph 6.9 mph 80 % 0.00 in
08:28 63.8 °F 57.5 °F 30.22 in NE 3.9 mph 9.2 mph 80 % 0.00 in
08:33 64.0 °F 57.4 °F 30.23 in ENE 5.1 mph 9.2 mph 79 % 0.00 in
08:38 64.2 °F 57.5 °F 30.23 in East 5.1 mph 9.2 mph 79 % 0.00 in
08:43 64.3 °F 57.6 °F 30.23 in NE 3.0 mph 5.8 mph 79 % 0.00 in
08:48 64.5 °F 57.8 °F 30.23 in NE 2.6 mph 4.6 mph 79 % 0.00 in
08:53 64.8 °F 57.8 °F 30.23 in NE 2.7 mph 6.9 mph 78 % 0.00 in
08:58 65.0 °F 58.3 °F 30.23 in ENE 2.6 mph 5.8 mph 79 % 0.00 in
09:03 65.2 °F 57.8 °F 30.23 in ENE 3.1 mph 5.8 mph 77 % 0.00 in
09:08 65.3 °F 57.5 °F 30.23 in NE 4.0 mph 5.8 mph 76 % 0.00 in
09:13 65.5 °F 57.7 °F 30.23 in ENE 2.4 mph 4.0 mph 76 % 0.00 in
09:18 65.7 °F 58.3 °F 30.23 in ENE 2.5 mph 4.6 mph 77 % 0.00 in
09:23 65.9 °F 58.5 °F 30.23 in NE 3.6 mph 5.8 mph 77 % 0.00 in
09:24 65.9 °F 58.5 °F 30.23 in NNE 2.7 mph 5.8 mph 77 % 0.00 in
09:29 66.1 °F 58.3 °F 30.23 in ENE 3.3 mph 8.1 mph 76 % 0.00 in
09:34 66.3 °F 58.5 °F 30.23 in ENE 4.8 mph 9.2 mph 76 % 0.00 in
09:39 66.6 °F 58.8 °F 30.24 in NE 2.8 mph 8.1 mph 76 % 0.00 in
09:44 66.9 °F 58.3 °F 30.24 in ENE 2.8 mph 9.2 mph 74 % 0.00 in
09:49 67.3 °F 58.7 °F 30.24 in North 3.4 mph 6.9 mph 74 % 0.00 in
09:54 68.0 °F 59.4 °F 30.24 in ENE 3.2 mph 5.8 mph 74 % 0.00 in
09:59 68.8 °F 59.4 °F 30.24 in NE 2.8 mph 6.0 mph 72 % 0.00 in
10:04 69.5 °F 59.3 °F 30.24 in NE 5.1 mph 9.2 mph 70 % 0.00 in
10:09 69.8 °F 59.2 °F 30.24 in ENE 1.7 mph 3.5 mph 69 % 0.00 in
10:14 69.9 °F 58.9 °F 30.24 in ENE 2.6 mph 5.0 mph 68 % 0.00 in
10:19 69.9 °F 59.3 °F 30.24 in ENE 3.6 mph 8.0 mph 69 % 0.00 in
10:20 69.9 °F 59.3 °F 30.24 in NE 4.0 mph 9.2 mph 69 % 0.00 in
10:25 69.9 °F 59.7 °F 30.24 in NE 2.1 mph 3.5 mph 70 % 0.00 in
10:30 69.9 °F 60.1 °F 30.24 in NNE 1.7 mph 2.3 mph 71 % 0.00 in
10:35 69.9 °F 59.7 °F 30.24 in ENE 2.2 mph 4.6 mph 70 % 0.00 in
10:40 69.9 °F 59.7 °F 30.24 in NNE 2.0 mph 7.0 mph 70 % 0.00 in
10:45 70.1 °F 60.3 °F 30.24 in NE 1.3 mph 3.5 mph 71 % 0.00 in
10:50 70.4 °F 60.5 °F 30.24 in NE 1.1 mph 3.0 mph 71 % 0.00 in
10:55 70.6 °F 59.9 °F 30.24 in NNE 2.1 mph 3.5 mph 69 % 0.00 in
11:00 71.1 °F 60.4 °F 30.24 in NE 1.2 mph 2.3 mph 69 % 0.00 in
11:05 71.8 °F 61.1 °F 30.24 in ENE 2.1 mph 3.5 mph 69 % 0.00 in
11:10 72.1 °F 60.5 °F 30.24 in ENE 2.7 mph 5.8 mph 67 % 0.00 in
11:15 72.7 °F 61.1 °F 30.24 in ENE 1.9 mph 6.0 mph 67 % 0.00 in
11:20 73.0 °F 61.0 °F 30.24 in ENE 1.8 mph 4.6 mph 66 % 0.00 in
11:25 73.2 °F 60.7 °F 30.24 in NE 2.2 mph 8.1 mph 65 % 0.00 in
11:30 74.0 °F 62.3 °F 30.24 in NE 3.3 mph 4.6 mph 67 % 0.00 in
11:35 74.4 °F 61.0 °F 30.24 in ENE 2.8 mph 4.6 mph 63 % 0.00 in
11:40 74.8 °F 61.8 °F 30.24 in NE 2.2 mph 3.5 mph 64 % 0.00 in
11:45 75.1 °F 61.6 °F 30.24 in NE 0.8 mph 3.5 mph 63 % 0.00 in
11:50 75.7 °F 63.1 °F 30.24 in NE 0.1 mph 1.2 mph 65 % 0.00 in
11:55 76.0 °F 61.6 °F 30.24 in ENE 3.8 mph 4.6 mph 61 % 0.00 in
12:00 76.2 °F 62.7 °F 30.24 in NNE 0.5 mph 2.3 mph 63 % 0.00 in
12:05 76.8 °F 61.4 °F 30.24 in ENE 2.2 mph 3.5 mph 59 % 0.00 in
12:10 77.0 °F 61.1 °F 30.24 in NE 2.6 mph 4.6 mph 58 % 0.00 in
12:15 77.2 °F 63.6 °F 30.24 in NE 0.7 mph 2.3 mph 63 % 0.00 in
12:20 77.3 °F 61.4 °F 30.24 in ENE 1.7 mph 4.6 mph 58 % 0.00 in
12:25 77.1 °F 61.2 °F 30.23 in NE 2.9 mph 8.1 mph 58 % 0.00 in
12:30 77.1 °F 61.7 °F 30.23 in ENE 2.6 mph 6.9 mph 59 % 0.00 in
12:35 76.8 °F 60.9 °F 30.23 in ENE 2.4 mph 5.8 mph 58 % 0.00 in
12:41 76.4 °F 62.0 °F 30.23 in NE 1.0 mph 9.0 mph 61 % 0.00 in
12:46 76.7 °F 61.8 °F 30.23 in NE 3.0 mph 6.0 mph 60 % 0.00 in
12:51 76.9 °F 62.9 °F 30.23 in NNE 1.0 mph 4.0 mph 62 % 0.00 in
12:56 77.0 °F 63.0 °F 30.22 in NE 1.0 mph 4.0 mph 62 % 0.00 in
13:01 77.0 °F 61.6 °F 30.23 in NNE 4.1 mph 4.6 mph 59 % 0.00 in
13:06 77.0 °F 63.0 °F 30.23 in ENE 1.9 mph 3.5 mph 62 % 0.00 in
13:11 77.2 °F 62.7 °F 30.22 in NE 2.8 mph 3.5 mph 61 % 0.00 in
13:16 77.5 °F 61.6 °F 30.22 in ENE 3.1 mph 5.0 mph 58 % 0.00 in
13:21 77.6 °F 63.5 °F 30.22 in NE 1.3 mph 2.3 mph 62 % 0.00 in
13:26 77.8 °F 62.3 °F 30.22 in NE 3.7 mph 5.8 mph 59 % 0.00 in
13:31 78.0 °F 63.9 °F 30.22 in Calm   1.2 mph 62 % 0.00 in
13:36 78.2 °F 62.2 °F 30.22 in NE 1.1 mph 2.3 mph 58 % 0.00 in
13:41 78.3 °F 63.7 °F 30.22 in NE 0.5 mph 1.2 mph 61 % 0.00 in
13:46 78.2 °F 62.7 °F 30.22 in ENE 0.5 mph 2.3 mph 59 % 0.00 in
13:51 78.3 °F 61.8 °F 30.21 in NE 1.5 mph 3.5 mph 57 % 0.00 in
13:52 78.3 °F 62.8 °F 30.21 in NE 1.8 mph 5.0 mph 59 % 0.00 in
13:57 78.4 °F 62.9 °F 30.21 in NE 3.7 mph 6.9 mph 59 % 0.00 in
14:02 78.3 °F 61.8 °F 30.20 in ENE 1.6 mph 3.5 mph 57 % 0.00 in
14:07 78.3 °F 62.8 °F 30.20 in NE 0.7 mph 2.3 mph 59 % 0.00 in
14:12 78.5 °F 63.0 °F 30.20 in NE 0.8 mph 2.3 mph 59 % 0.00 in
14:17 78.8 °F 62.3 °F 30.20 in NE 1.5 mph 3.5 mph 57 % 0.00 in
14:22 78.7 °F 60.7 °F 30.20 in East 3.3 mph 6.9 mph 54 % 0.00 in
14:27 78.4 °F 60.4 °F 30.20 in East 3.5 mph 8.0 mph 54 % 0.00 in
14:32 78.3 °F 61.8 °F 30.19 in NE 0.3 mph 2.3 mph 57 % 0.00 in
14:37 78.5 °F 61.0 °F 30.19 in ENE 0.4 mph 3.5 mph 55 % 0.00 in
14:42 78.8 °F 58.6 °F 30.19 in ENE 2.5 mph 5.0 mph 50 % 0.00 in
14:48 78.8 °F 58.6 °F 30.19 in ENE 0.4 mph 4.6 mph 50 % 0.00 in
14:53 78.9 °F 58.7 °F 30.19 in NE 1.6 mph 3.5 mph 50 % 0.00 in
14:58 78.7 °F 57.4 °F 30.19 in ENE 0.7 mph 3.5 mph 48 % 0.00 in
15:03 78.6 °F 57.3 °F 30.18 in East 1.4 mph 5.0 mph 48 % 0.00 in
15:08 78.6 °F 57.8 °F 30.18 in NE 1.1 mph 3.5 mph 49 % 0.00 in
15:13 78.7 °F 57.4 °F 30.18 in NE 0.8 mph 3.5 mph 48 % 0.00 in
15:18 78.7 °F 56.2 °F 30.19 in ENE 1.1 mph 4.6 mph 46 % 0.00 in
15:23 78.8 °F 58.0 °F 30.18 in ENE 0.5 mph 2.3 mph 49 % 0.00 in
15:28 78.8 °F 56.3 °F 30.18 in NE 0.6 mph 2.3 mph 46 % 0.00 in
15:33 78.9 °F 57.0 °F 30.17 in NE 0.5 mph 2.3 mph 47 % 0.00 in
15:38 78.9 °F 57.0 °F 30.17 in NE 0.9 mph 3.0 mph 47 % 0.00 in
15:43 78.9 °F 55.8 °F 30.18 in NE 0.6 mph 2.3 mph 45 % 0.00 in
15:48 79.0 °F 55.2 °F 30.18 in ENE 0.8 mph 2.3 mph 44 % 0.00 in
15:53 78.8 °F 54.4 °F 30.18 in ENE 0.2 mph 1.2 mph 43 % 0.00 in
15:59 78.8 °F 55.0 °F 30.18 in East 0.5 mph 2.3 mph 44 % 0.00 in
16:04 78.7 °F 55.6 °F 30.18 in East 0.5 mph 2.3 mph 45 % 0.00 in
16:09 78.6 °F 54.2 °F 30.18 in East 0.3 mph 1.2 mph 43 % 0.00 in
16:14 78.4 °F 53.4 °F 30.17 in East 0.5 mph 1.2 mph 42 % 0.00 in
16:19 78.2 °F 54.5 °F 30.17 in East 0.3 mph 1.2 mph 44 % 0.00 in
16:24 78.0 °F 54.3 °F 30.17 in East 0.6 mph 1.2 mph 44 % 0.00 in
16:29 77.9 °F 55.5 °F 30.17 in East 0.7 mph 1.2 mph 46 % 0.00 in
16:34 77.7 °F 54.7 °F 30.17 in East 0.4 mph 1.2 mph 45 % 0.00 in
16:39 77.8 °F 54.8 °F 30.17 in East 0.5 mph 1.2 mph 45 % 0.00 in
16:44 77.7 °F 54.0 °F 30.17 in East 0.1 mph 2.3 mph 44 % 0.00 in
16:49 77.6 °F 54.0 °F 30.16 in East 0.5 mph 2.3 mph 44 % 0.00 in
16:54 77.3 °F 53.7 °F 30.16 in East 0.3 mph 1.2 mph 44 % 0.00 in
16:59 77.2 °F 53.6 °F 30.16 in East 0.5 mph 2.3 mph 44 % 0.00 in
17:04 77.0 °F 52.8 °F 30.16 in East 0.2 mph 1.2 mph 43 % 0.00 in
17:09 77.0 °F 53.4 °F 30.17 in East 0.4 mph 1.2 mph 44 % 0.00 in
17:14 76.8 °F 53.2 °F 30.17 in East 0.1 mph 1.0 mph 44 % 0.00 in
17:19 76.7 °F 54.4 °F 30.17 in Calm     46 % 0.00 in
17:24 76.6 °F 53.7 °F 30.17 in East 0.1 mph 1.2 mph 45 % 0.00 in
17:29 76.4 °F 53.5 °F 30.17 in East 0.2 mph 1.2 mph 45 % 0.00 in
17:34 76.2 °F 55.1 °F 30.17 in East 0.1 mph 1.2 mph 48 % 0.00 in
17:39 76.1 °F 55.0 °F 30.17 in Calm     48 % 0.00 in
17:44 76.0 °F 55.5 °F 30.17 in East 0.1 mph   49 % 0.00 in
17:49 75.9 °F 55.9 °F 30.17 in Calm   1.2 mph 50 % 0.00 in
17:54 75.8 °F 55.3 °F 30.17 in Calm   1.2 mph 49 % 0.00 in
17:59 75.5 °F 55.0 °F 30.17 in Calm   1.2 mph 49 % 0.00 in
18:04 75.3 °F 55.4 °F 30.17 in Calm   1.2 mph 50 % 0.00 in
18:09 75.1 °F 55.7 °F 30.17 in East 0.1 mph 1.2 mph 51 % 0.00 in
18:14 74.8 °F 56.5 °F 30.17 in Calm     53 % 0.00 in
18:19 74.6 °F 56.9 °F 30.17 in Calm     54 % 0.00 in
18:24 74.4 °F 56.7 °F 30.17 in Calm     54 % 0.00 in
18:29 74.1 °F 56.4 °F 30.18 in Calm     54 % 0.00 in
18:34 73.9 °F 56.7 °F 30.18 in Calm     55 % 0.00 in
18:39 73.8 °F 57.1 °F 30.18 in East 0.1 mph 1.2 mph 56 % 0.00 in
18:45 73.6 °F 56.9 °F 30.18 in Calm     56 % 0.00 in
18:50 73.5 °F 57.3 °F 30.18 in East 0.2 mph 1.0 mph 57 % 0.00 in
18:55 73.2 °F 57.5 °F 30.18 in ESE 1.6 mph 3.5 mph 58 % 0.00 in
19:00 72.9 °F 58.2 °F 30.18 in SE 1.2 mph 1.2 mph 60 % 0.00 in
19:05 72.6 °F 58.4 °F 30.19 in SE 1.0 mph 3.5 mph 61 % 0.00 in
19:10 72.1 °F 57.9 °F 30.19 in Calm   1.2 mph 61 % 0.00 in
19:15 71.7 °F 58.0 °F 30.19 in SE 1.5 mph 3.5 mph 62 % 0.00 in
19:20 71.2 °F 57.5 °F 30.19 in SE 1.3 mph 3.5 mph 62 % 0.00 in
19:25 70.9 °F 57.7 °F 30.19 in Calm   2.3 mph 63 % 0.00 in
19:30 70.7 °F 57.9 °F 30.19 in SE 0.4 mph 3.5 mph 64 % 0.00 in
19:35 70.4 °F 57.6 °F 30.19 in SE 0.2 mph 1.2 mph 64 % 0.00 in
19:40 70.0 °F 57.3 °F 30.19 in SE 1.1 mph 2.3 mph 64 % 0.00 in
19:45 69.7 °F 57.4 °F 30.19 in SE 0.8 mph 3.5 mph 65 % 0.00 in
19:50 69.5 °F 57.2 °F 30.19 in SE 2.3 mph 3.5 mph 65 % 0.00 in
19:55 69.2 °F 56.9 °F 30.19 in SE 1.5 mph 4.0 mph 65 % 0.00 in
20:00 69.0 °F 56.7 °F 30.19 in SE 1.4 mph 3.5 mph 65 % 0.00 in
20:05 68.8 °F 57.0 °F 30.19 in SE 0.9 mph 2.3 mph 66 % 0.00 in
20:10 68.6 °F 56.8 °F 30.19 in SE 0.8 mph 2.3 mph 66 % 0.00 in
20:15 68.5 °F 56.7 °F 30.19 in SE 0.2 mph 3.5 mph 66 % 0.00 in
20:20 68.2 °F 56.8 °F 30.19 in SE 0.1 mph 1.2 mph 67 % 0.00 in
20:25 68.1 °F 57.1 °F 30.19 in SE 0.8 mph 2.3 mph 68 % 0.00 in
20:30 67.9 °F 56.9 °F 30.20 in SE 0.2 mph 2.3 mph 68 % 0.00 in
20:35 67.8 °F 56.9 °F 30.20 in SE 0.2 mph 1.2 mph 68 % 0.00 in
20:40 67.7 °F 57.2 °F 30.19 in SE 0.3 mph 1.2 mph 69 % 0.00 in
20:45 67.5 °F 57.0 °F 30.19 in SE 0.6 mph 2.3 mph 69 % 0.00 in
20:50 67.4 °F 56.9 °F 30.19 in SE 0.1 mph 1.2 mph 69 % 0.00 in
20:55 67.2 °F 56.7 °F 30.19 in Calm   1.2 mph 69 % 0.00 in
21:00 67.1 °F 56.6 °F 30.20 in SE 0.2 mph 1.2 mph 69 % 0.00 in
21:05 66.9 °F 56.4 °F 30.20 in Calm   1.2 mph 69 % 0.00 in
21:10 66.7 °F 56.2 °F 30.20 in Calm     69 % 0.00 in
21:15 66.6 °F 56.5 °F 30.20 in Calm     70 % 0.00 in
21:20 66.4 °F 56.7 °F 30.20 in Calm     71 % 0.00 in
21:25 66.3 °F 57.0 °F 30.20 in Calm     72 % 0.00 in
21:30 66.0 °F 56.7 °F 30.20 in Calm     72 % 0.00 in
21:35 65.8 °F 56.5 °F 30.20 in Calm     72 % 0.00 in
21:40 65.6 °F 56.3 °F 30.20 in Calm     72 % 0.00 in
21:45 65.3 °F 56.8 °F 30.20 in Calm     74 % 0.00 in
21:50 64.9 °F 57.2 °F 30.20 in Calm     76 % 0.00 in
21:55 64.5 °F 57.1 °F 30.20 in Calm     77 % 0.00 in
22:00 64.2 °F 56.8 °F 30.20 in Calm     77 % 0.00 in
22:05 64.0 °F 57.0 °F 30.20 in Calm     78 % 0.00 in
22:11 63.8 °F 57.2 °F 30.20 in Calm     79 % 0.00 in
22:16 63.5 °F 56.9 °F 30.21 in Calm     79 % 0.00 in
22:21 63.3 °F 56.3 °F 30.20 in Calm   1.0 mph 78 % 0.00 in
22:26 63.1 °F 55.8 °F 30.21 in Calm   1.0 mph 77 % 0.00 in
22:31 62.9 °F 55.6 °F 30.21 in Calm   2.0 mph 77 % 0.00 in
22:36 62.7 °F 55.0 °F 30.21 in Calm   2.0 mph 76 % 0.00 in
22:41 62.5 °F 54.8 °F 30.22 in SE 1.0 mph 3.0 mph 76 % 0.00 in
22:46 62.4 °F 54.3 °F 30.22 in SE 1.0 mph 3.0 mph 75 % 0.00 in
22:51 62.3 °F 54.6 °F 30.22 in SE 1.0 mph 2.0 mph 76 % 0.00 in
22:56 62.3 °F 54.6 °F 30.22 in Calm   3.0 mph 76 % 0.00 in
23:01 62.3 °F 54.6 °F 30.22 in SE 0.4 mph 1.0 mph 76 % 0.00 in
23:06 62.4 °F 55.1 °F 30.22 in SE 1.0 mph 3.0 mph 77 % 0.00 in
23:11 62.4 °F 55.1 °F 30.22 in SE 0.8 mph 3.0 mph 77 % 0.00 in
23:16 62.4 °F 55.1 °F 30.22 in SE 1.0 mph 2.3 mph 77 % 0.00 in
23:21 62.4 °F 55.1 °F 30.22 in Calm     77 % 0.00 in
23:26 62.3 °F 55.0 °F 30.22 in SE 0.4 mph 1.2 mph 77 % 0.00 in
23:31 62.3 °F 55.0 °F 30.23 in SE 0.9 mph 2.3 mph 77 % 0.00 in
23:36 62.3 °F 55.0 °F 30.22 in Calm   1.2 mph 77 % 0.00 in
23:41 62.3 °F 55.0 °F 30.22 in Calm   1.2 mph 77 % 0.00 in
23:46 62.2 °F 54.9 °F 30.22 in Calm     77 % 0.00 in
23:51 62.2 °F 54.9 °F 30.23 in Calm     77 % 0.00 in
23:56 62.2 °F 55.3 °F 30.23 in Calm     78 % 0.00 in
Crab Meadow Weather
Compliments of Weather Underground - 3 mb

Script developed by  Jim McMurry - jmcmurry@mwt.net Adapted for the template by  Wim van der Kuil - Leuven-Template.eu

Extremes: Currently the driest state is Nevada with an annual rainfall of only nine inches.